{"data":{"norad_id":66581,"intl_designator":"2025-268AA","name":"STARLINK-35744","alt_names":[],"object_type":"PAYLOAD","status":"ACTIVE","operator":null,"country":"US","launch_date":"2025-11-21","launch_site_code":"AFETR","launch_vehicle":null,"mission":null,"orbit_class":"UNKNOWN","rcs_meters":null,"size_class":null,"mass_kg":null,"dimensions":null,"purposes":["comms"],"wikipedia_slug":null,"has_3d_model":false,"image_url":null,"decayed_at":null,"tle_current":{"epoch":"2026-09-20T21:06:23.452704Z","epoch_age_seconds":53785,"freshness":"FRESH","line1":"1 66581U 25268AA  26263.87943811  .00010145  00000+0  37761-3 0  9996","line2":"2 66581  43.0007 324.5446 0001237 269.7861  90.2849 15.27584573 47811","mean_motion":15.27584573,"eccentricity":0.0001237,"inclination_deg":43.0007,"raan_deg":324.5446,"arg_perigee_deg":269.7861,"mean_anomaly_deg":90.2849,"bstar":0.00037761,"rev_number":4781,"period_min":94.266466515304,"perigee_km":482.18667584045,"apogee_km":483.88412989292,"semimajor_km":6861.1724028667,"source":"CELESTRAK","updated_at":"2026-09-21T09:00:35.974593Z"}}}